Wind_Speed
43 43 44 43 43 39 40 40 41 43 43 40 37 33 31 35 45 41 39 40 39 37 38 40 41 37 33 31 29 29 30 29 29 28 28 29 30 31
45 45 46 46 46 47 44 46 46 47 48 45 40 36 32 34 45 45 39 40 40 41 43 43 41 39 38 34 33 32 32 32 31 32 31 31 32 33
45 47 49 45 46 53 45 50 53 51 51 50 46 43 41 37 41 44 44 41 44 45 45 43 39 39 40 38 37 36 35 36 35 35 34 35 36 36
40 47 50 51 47 49 49 54 54 53 52 52 52 49 45 42 41 45 48 48 48 45 44 43 42 41 40 41 40 40 40 39 38 38 38 39 39 40
57 59 49 56 56 58 51 55 58 57 54 54 56 56 51 50 48 50 51 51 52 48 45 45 43 42 43 42 42 42 41 42 42 42 43 42 43 46
47 48 50 68 57 58 58 61 48 63 56 60 59 61 61 57 55 55 55 56 52 51 49 48 48 47 46 46 44 46 46 45 45 46 49 47 44 45
47 47 50 53 68 58 54 56 64 52 62 57 62 66 65 66 62 58 58 56 57 56 53 55 54 52 49 49 49 51 47 47 48 51 55 51 48 46
55 52 53 45 57 60 65 67 68 64 56 61 56 68 67 68 66 65 64 63 66 61 58 60 56 56 54 55 55 50 54 57 56 58 58 54 52 44
54 52 53 51 54 59 54 60 74 77 73 68 61 57 65 69 65 69 69 71 67 63 63 64 63 63 60 59 57 61 57 52 58 56 55 52 48 46
63 59 53 56 57 61 46 54 52 63 75 75 80 69 68 65 74 70 71 69 69 74 71 72 70 68 65 67 62 64 62 62 52 54 54 53 50 46
62 66 58 62 59 58 59 60 65 61 59 55 68 85 67 67 79 66 70 76 80 80 71 73 74 71 80 74 75 69 67 57 55 54 52 53 53 51
58 60 70 56 61 60 64 64 63 62 58 53 62 59 61 54 59 73 57 64 70 75 72 72 71 70 78 76 73 73 75 60 61 58 52 56 56 56
60 60 60 60 60 61 60 63 61 62 63 64 65 66 66 51 59 60 58 64 61 71 75 75 75 83 76 72 69 69 66 66 60 53 54 55 54 51
53 56 60 63 64 64 63 67 59 67 63 62 65 70 64 59 63 51 57 76 74 71 58 62 70 70 67 63 64 62 66 58 54 59 59 58 58 56
51 51 54 59 62 64 66 67 68 67 68 64 64 61 65 62 58 60 56 58 59 60 64 69 65 60 59 59 58 55 52 56 59 59 60 60 58 58
48 50 51 52 55 58 62 66 71 72 71 68 65 67 64 64 60 64 65 62 60 61 65 60 58 57 55 57 59 59 60 60 60 66 64 61 59 57
46 47 48 48 51 54 56 59 62 69 71 71 71 69 67 72 65 56 55 63 63 63 60 58 61 62 67 64 60 63 69 71 67 64 65 60 57 57
42 44 45 46 46 49 52 56 57 59 63 70 73 67 67 70 71 70 62 59 58 61 60 59 60 62 68 67 71 70 67 67 62 63 61 60 56 55
43 41 41 42 44 45 47 49 54 55 57 59 63 68 68 66 66 70 70 65 58 59 57 58 59 61 61 62 63 67 66 65 64 64 61 58 55 51
43 43 42 41 41 42 43 45 47 51 54 56 57 60 66 68 68 65 67 66 60 57 59 55 51 51 55 58 60 56 56 59 60 58 55 52 48 45
38 41 42 42 41 41 41 43 45 47 49 52 54 55 59 64 68 71 66 60 58 61 59 58 55 53 53 52 52 50 51 52 51 49 44 42 42 43
39 40 41 42 42 42 42 43 45 45 46 47 50 52 54 58 64 65 66 64 62 63 61 59 55 55 53 56 50 47 45 47 48 43 40 38 36 39
39 40 41 42 43 43 44 45 46 46 45 44 45 47 49 52 54 57 63 61 61 62 59 58 59 54 48 49 48 44 44 44 44 43 44 43 42 38
Wind_Direction
243 243 244 242 242 241 247 247 245 243 244 243 246 248 248 232 228 238 248 251 250 253 257 264 271 274 275 274 271 270 273 275 278 280 283 285 288 289
245 245 246 247 243 246 242 248 246 246 246 245 243 247 246 240 235 243 250 248 251 254 257 263 269 273 274 272 270 269 273 275 277 279 280 285 289 291
248 250 247 249 254 250 244 246 248 245 247 248 245 242 240 240 236 241 242 245 249 251 256 260 264 268 270 272 271 271 272 274 276 278 281 286 292 288
250 244 253 248 246 253 253 253 252 244 246 245 250 247 245 244 243 239 240 245 251 252 255 258 260 262 265 266 268 271 273 274 276 276 278 281 286 287
262 241 247 249 249 245 249 253 255 250 245 245 247 248 244 243 243 242 241 242 246 249 252 255 259 262 265 268 269 270 272 274 272 273 274 277 286 290
268 263 262 252 253 249 249 248 257 255 248 247 247 248 248 245 244 243 243 245 248 251 253 257 259 262 264 266 270 272 271 271 273 274 274 276 283 283
263 258 257 254 251 254 250 254 254 259 253 254 248 250 249 248 246 248 248 249 250 251 252 255 259 264 267 268 271 272 273 272 274 270 273 270 279 273
257 257 257 261 246 249 246 255 258 258 256 255 255 249 251 251 251 248 249 250 252 252 255 258 260 262 266 267 275 270 273 276 270 267 271 271 275 269
258 258 261 261 259 258 256 255 253 252 257 254 256 266 254 249 253 253 252 255 255 259 260 261 260 260 261 264 268 272 264 267 273 270 269 268 266 273
251 257 252 257 259 253 257 255 262 254 246 255 258 257 264 263 248 254 254 257 257 259 260 259 265 261 265 265 266 269 266 270 271 268 267 267 265 271
254 255 257 255 256 252 257 256 262 264 261 263 256 255 263 269 263 256 251 257 252 252 255 259 264 263 266 266 273 266 267 265 263 266 262 264 265 271
254 254 254 255 257 256 259 254 255 252 255 262 253 266 262 258 257 259 259 258 253 256 258 255 264 265 270 267 269 266 267 256 258 259 260 266 268 270
251 250 252 259 259 257 254 251 251 254 255 253 255 257 256 256 261 251 254 256 261 258 258 258 259 263 267 268 271 268 265 259 258 263 266 264 272 271
255 254 251 249 249 252 260 260 260 255 252 254 253 252 253 256 260 261 263 262 260 261 263 263 259 264 265 268 268 261 258 259 260 262 266 268 272 266
266 262 256 253 250 250 249 249 247 254 257 260 256 258 253 258 259 259 261 260 261 258 263 264 262 255 262 265 261 263 252 262 265 267 267 264 267 266
269 266 266 262 257 254 252 249 248 249 252 254 260 268 271 260 258 258 264 259 263 264 264 259 255 256 257 261 256 256 256 259 266 267 262 263 260 260
265 266 267 266 265 262 259 256 253 250 248 250 252 251 257 267 266 261 260 262 258 262 261 258 258 256 255 253 249 249 254 265 268 266 261 259 258 256
269 267 263 263 264 263 262 259 257 257 255 251 248 251 252 254 260 264 263 262 266 264 259 260 261 258 251 252 255 261 263 260 262 261 258 255 254 251
274 273 272 269 266 265 265 263 260 258 257 256 254 248 249 248 249 251 254 256 260 263 260 260 259 259 261 262 263 261 262 260 260 257 256 255 253 251
273 273 274 274 272 271 269 267 264 261 258 256 255 253 251 250 250 251 249 249 249 254 260 258 259 260 262 263 261 261 262 261 258 258 260 256 251 242
275 273 273 273 274 275 274 272 268 265 262 258 255 252 251 249 250 253 253 249 250 250 248 251 262 261 260 261 260 259 258 257 256 257 255 250 245 243
276 276 276 276 276 277 277 276 273 268 264 261 258 255 251 249 249 251 252 252 253 253 252 251 249 250 257 262 259 257 254 250 249 245 239 234 240 240
277 276 276 275 275 275 275 275 273 271 268 265 261 257 256 254 250 250 251 251 249 250 252 251 251 249 248 246 247 250 246 241 238 236 232 228 222 220
Height
3110 3113 3116 3119 3121 3122 3124 3126 3127 3127 3129 3132 3133 3137 3138 3139 3141 3144 3146 3147 3149 3150 3150 3149 3148 3149 3150 3150 3150 3149 3148 3147 3146 3145 3144 3143 3141 3140
3100 3102 3106 3109 3111 3109 3114 3117 3117 3119 3118 3123 3126 3127 3129 3132 3134 3137 3138 3141 3142 3142 3141 3141 3142 3140 3140 3142 3141 3141 3140 3139 3138 3138 3137 3135 3134 3132
3089 3092 3094 3099 3100 3101 3101 3106 3106 3108 3109 3112 3116 3118 3118 3121 3123 3126 3129 3130 3132 3133 3133 3133 3134 3133 3132 3132 3132 3132 3132 3131 3132 3130 3129 3128 3125 3123
3068 3078 3082 3086 3087 3091 3091 3093 3093 3096 3100 3102 3104 3107 3109 3112 3114 3114 3117 3120 3121 3122 3123 3124 3124 3124 3124 3123 3124 3124 3123 3123 3122 3122 3120 3119 3118 3116
3061 3066 3065 3073 3073 3075 3075 3080 3083 3082 3087 3091 3090 3093 3098 3098 3101 3102 3104 3107 3108 3111 3112 3113 3115 3114 3114 3114 3115 3115 3114 3114 3113 3111 3110 3109 3107 3107
3048 3051 3054 3054 3060 3065 3066 3068 3068 3073 3071 3078 3079 3079 3083 3087 3088 3089 3091 3093 3098 3099 3101 3102 3102 3103 3103 3103 3104 3103 3103 3103 3102 3100 3099 3098 3097 3096
3035 3039 3041 3043 3047 3049 3054 3055 3055 3055 3060 3060 3065 3064 3068 3070 3074 3081 3080 3085 3084 3085 3089 3087 3089 3090 3091 3091 3092 3093 3092 3092 3091 3088 3087 3087 3086 3085
3021 3026 3026 3028 3030 3035 3037 3041 3041 3041 3042 3046 3047 3048 3056 3060 3064 3068 3068 3068 3067 3073 3075 3074 3077 3075 3078 3078 3080 3080 3080 3078 3077 3075 3074 3073 3074 3073
3007 3009 3012 3014 3017 3019 3021 3024 3026 3026 3025 3029 3030 3034 3039 3042 3051 3053 3053 3053 3052 3060 3063 3059 3059 3059 3063 3064 3065 3065 3063 3063 3062 3061 3061 3060 3061 3061
2992 2993 2997 2998 3001 3004 3005 3006 3006 3007 3013 3015 3015 3019 3022 3027 3027 3032 3040 3043 3043 3038 3040 3040 3042 3043 3049 3048 3049 3050 3049 3049 3048 3047 3047 3047 3047 3047
2977 2977 2980 2982 2985 2988 2990 2991 2992 2993 2998 2998 3000 3002 3005 3007 3009 3011 3013 3014 3018 3017 3021 3024 3024 3026 3030 3028 3033 3031 3032 3032 3032 3032 3032 3033 3034 3033
2958 2959 2964 2965 2968 2970 2971 2971 2973 2977 2980 2982 2985 2985 2988 2990 2990 2989 2995 2994 2997 3000 3002 3007 3009 3012 3009 3012 3014 3015 3014 3015 3015 3016 3017 3018 3018 3019
2937 2942 2945 2948 2948 2950 2953 2954 2956 2961 2961 2962 2967 2969 2971 2971 2972 2971 2975 2979 2980 2981 2988 2989 2988 2991 2994 2992 2994 2998 2997 2998 2999 3000 3002 3003 3004 3005
2920 2921 2925 2928 2929 2931 2935 2938 2942 2943 2943 2942 2945 2949 2951 2952 2956 2958 2958 2959 2964 2966 2968 2969 2969 2972 2976 2976 2975 2977 2982 2984 2984 2986 2988 2989 2989 2989
2905 2905 2905 2907 2908 2912 2915 2920 2922 2924 2925 2924 2928 2930 2933 2938 2939 2940 2942 2945 2945 2947 2948 2950 2952 2955 2957 2958 2960 2962 2965 2968 2969 2970 2972 2973 2974 2973
2888 2889 2889 2889 2891 2892 2895 2897 2900 2904 2905 2906 2909 2915 2917 2918 2919 2923 2926 2927 2928 2929 2932 2933 2934 2938 2940 2944 2946 2949 2950 2951 2956 2955 2956 2956 2957 2958
2874 2875 2874 2874 2874 2876 2877 2878 2880 2883 2885 2889 2891 2893 2896 2900 2903 2905 2907 2908 2909 2913 2915 2919 2919 2922 2923 2926 2929 2931 2934 2935 2938 2938 2938 2939 2941 2942
2859 2860 2861 2860 2860 2859 2860 2861 2862 2864 2866 2868 2872 2874 2875 2878 2885 2887 2890 2891 2894 2896 2898 2901 2903 2903 2905 2907 2911 2913 2915 2917 2919 2920 2921 2922 2924 2926
2846 2847 2846 2845 2845 2845 2845 2844 2845 2846 2847 2848 2851 2854 2859 2860 2861 2865 2869 2874 2877 2879 2880 2882 2886 2887 2887 2889 2893 2895 2897 2899 2901 2903 2905 2907 2910 2915
2834 2834 2833 2832 2831 2830 2830 2830 2829 2830 2830 2830 2832 2835 2839 2841 2844 2847 2850 2855 2857 2860 2863 2867 2870 2871 2872 2874 2875 2879 2880 2884 2886 2890 2893 2896 2899 2903
2823 2821 2820 2819 2818 2816 2814 2814 2814 2814 2814 2814 2816 2817 2821 2824 2828 2831 2835 2835 2838 2842 2844 2848 2857 2858 2856 2857 2860 2862 2865 2869 2874 2878 2881 2884 2887 2890
2810 2808 2807 2805 2804 2803 2802 2800 2799 2799 2799 2798 2799 2800 2802 2805 2809 2813 2816 2819 2821 2825 2830 2833 2834 2836 2839 2842 2844 2848 2849 2854 2860 2864 2868 2873 2878 2881
2796 2795 2793 2792 2791 2790 2788 2787 2786 2785 2784 2783 2783 2784 2786 2788 2791 2794 2798 2802 2802 2808 2812 2814 2816 2819 2822 2825 2829 2834 2836 2839 2845 2850 2856 2862 2868 2872